TimeCDT,TemperatureF,Dew PointF,Humidity,Sea Level PressureIn,VisibilityMPH,Wind Direction,Wind SpeedMPH,Gust SpeedMPH,PrecipitationIn,Events,Conditions,WindDirDegrees,DateUTC
12:53 AM,55.0,52.0,89,29.92,10.0,Calm,Calm,-,N/A,,Clear,0,2013-10-11 05:53:00
1:53 AM,60.1,53.1,78,29.92,10.0,South,3.5,-,N/A,,Clear,180,2013-10-11 06:53:00
2:53 AM,57.9,53.1,84,29.91,10.0,South,4.6,-,N/A,,Clear,190,2013-10-11 07:53:00
3:53 AM,60.1,55.0,83,29.91,10.0,South,3.5,-,0.01,,Clear,180,2013-10-11 08:53:00
4:53 AM,59.0,55.0,87,29.92,10.0,Calm,Calm,-,N/A,,Clear,0,2013-10-11 09:53:00
5:53 AM,61.0,55.9,83,29.92,10.0,ESE,3.5,-,N/A,,Clear,120,2013-10-11 10:53:00
6:53 AM,55.0,54.0,96,29.95,10.0,Calm,Calm,-,N/A,,Clear,0,2013-10-11 11:53:00
7:09 AM,55.4,55.4,100,29.98,10.0,Calm,Calm,-,N/A,,Mostly Cloudy,0,2013-10-11 12:09:00
7:53 AM,57.9,57.0,97,29.96,10.0,Calm,Calm,-,N/A,,Overcast,0,2013-10-11 12:53:00
8:20 AM,59.0,57.2,94,29.98,10.0,SSE,4.6,-,N/A,,Overcast,160,2013-10-11 13:20:00
8:53 AM,64.0,59.0,84,29.96,10.0,SSE,5.8,-,N/A,,Mostly Cloudy,150,2013-10-11 13:53:00
9:53 AM,68.0,61.0,78,29.96,10.0,South,6.9,-,N/A,,Scattered Clouds,180,2013-10-11 14:53:00
10:53 AM,71.1,61.0,70,29.94,10.0,SSE,12.7,24.2,N/A,,Partly Cloudy,160,2013-10-11 15:53:00
11:53 AM,72.0,61.0,68,29.93,10.0,South,17.3,23.0,N/A,,Partly Cloudy,190,2013-10-11 16:53:00
12:53 PM,75.0,62.1,64,29.91,10.0,South,17.3,27.6,N/A,,Scattered Clouds,170,2013-10-11 17:53:00
1:53 PM,73.9,62.1,66,29.87,10.0,South,15.0,23.0,N/A,,Mostly Cloudy,170,2013-10-11 18:53:00
2:53 PM,73.0,63.0,71,29.87,10.0,SSE,11.5,-,N/A,,Mostly Cloudy,150,2013-10-11 19:53:00
3:53 PM,73.0,63.0,71,29.87,10.0,SSE,10.4,-,N/A,,Overcast,150,2013-10-11 20:53:00
4:53 PM,75.0,63.0,66,29.87,10.0,South,12.7,23.0,N/A,,Mostly Cloudy,170,2013-10-11 21:53:00
5:53 PM,73.9,64.0,71,29.88,10.0,SSE,9.2,-,N/A,,Overcast,150,2013-10-11 22:53:00
6:53 PM,72.0,63.0,73,29.87,10.0,SE,6.9,-,N/A,,Clear,140,2013-10-11 23:53:00
7:53 PM,70.0,63.0,78,29.88,10.0,SSE,5.8,-,N/A,,Partly Cloudy,150,2013-10-12 00:53:00
8:53 PM,70.0,63.0,78,29.88,10.0,South,6.9,-,N/A,,Partly Cloudy,170,2013-10-12 01:53:00
9:53 PM,70.0,62.1,76,29.89,10.0,South,11.5,19.6,N/A,,Clear,170,2013-10-12 02:53:00
10:53 PM,69.1,63.0,81,29.90,10.0,South,10.4,-,N/A,,Partly Cloudy,170,2013-10-12 03:53:00
11:53 PM,69.1,63.0,81,29.90,10.0,South,10.4,-,N/A,,Partly Cloudy,180,2013-10-12 04:53:00